Wind_Speed
26 30 29 30 26 37 38 37 32 36 36 33 17 20 14 15 14 14 17 18 21 22 21 22 25 29 27 26 21 22 24 27
20 30 33 47 29 32 44 37 34 35 28 21 18 14 14 12 17 14 17 21 23 20 24 28 29 29 26 25 27 26 31 32
26 35 44 33 23 31 36 32 34 31 23 17 14 14 14 14 14 17 21 21 20 24 27 30 27 27 30 30 32 34 35 33
27 43 42 38 33 35 39 38 26 18 18 15 13 11 13 15 18 18 20 22 22 25 28 23 27 28 27 26 26 28 32 34
38 32 44 30 27 28 39 27 18 16 15 16 14 12 16 17 20 21 20 23 26 28 23 24 24 27 28 29 30 32 33 33
26 37 34 25 23 23 16 20 20 12 7 8 11 13 17 19 19 21 22 23 21 21 21 24 26 28 29 31 31 32 34 36
23 29 28 24 22 20 18 16 12 10 11 13 16 15 13 18 20 20 17 17 19 23 24 25 27 29 31 33 35 37 39 40
18 22 21 17 18 19 16 15 15 13 11 11 13 15 17 18 15 15 18 20 22 24 26 28 30 33 35 38 39 41 43 43
15 15 14 15 15 16 16 13 10 8 6 11 13 15 12 11 14 18 19 21 24 27 30 33 35 38 40 42 44 45 46 46
17 17 16 12 12 9 10 14 10 7 9 11 9 8 10 13 17 19 21 26 29 33 36 38 40 42 44 45 47 49 49 49
15 15 17 18 18 15 12 10 8 8 8 7 8 12 13 17 19 24 28 30 34 37 40 41 43 45 47 48 50 52 52 52
16 15 14 11 10 9 9 8 7 6 7 9 13 15 17 20 25 29 32 35 38 41 43 45 46 48 50 51 53 53 53 53
8 9 8 8 8 7 7 7 7 9 12 14 16 19 23 27 30 34 37 40 43 46 47 48 49 50 52 53 54 54 53 53
11 9 9 9 10 8 7 8 9 12 15 18 21 24 28 31 35 38 40 44 47 49 50 51 52 54 55 55 55 55 55 56
8 9 10 9 8 8 9 10 12 15 18 22 26 30 33 36 39 41 44 47 49 50 53 55 55 56 56 56 57 57 58 59
11 12 9 8 10 11 12 13 16 19 24 27 31 35 38 40 44 46 48 50 48 50 52 54 56 59 59 59 60 61 62 61
11 12 12 11 13 15 16 18 20 24 28 32 36 39 42 46 48 50 51 51 50 57 59 61 60 60 61 61 62 63 64 65
11 10 13 12 14 19 20 22 25 31 32 36 40 43 46 49 50 49 50 52 54 60 65 67 65 64 63 64 66 68 69 70
14 12 14 14 16 19 23 27 32 33 36 40 44 47 49 49 52 51 52 58 60 64 68 69 66 66 67 68 70 72 74 76
14 10 14 16 20 24 26 32 34 38 43 45 48 49 48 50 51 47 57 61 65 68 68 68 69 69 70 72 73 76 79 82
Wind_Direction
271 275 277 254 279 260 256 250 264 254 238 234 190 202 198 217 248 260 268 279 293 305 301 303 307 308 302 301 300 297 291 295
280 271 271 260 248 252 244 243 250 240 228 216 196 170 216 232 240 254 270 283 291 294 295 301 306 303 306 308 296 299 310 301
249 244 253 221 247 248 245 249 244 223 223 172 161 192 220 242 262 266 271 280 288 294 297 299 303 301 301 304 298 295 302 306
253 241 221 223 236 234 243 242 221 184 154 162 174 200 219 249 261 272 279 282 285 294 305 301 300 308 308 310 310 306 306 306
247 236 235 219 224 253 246 237 200 168 149 161 171 216 252 260 265 269 285 294 297 299 302 308 314 313 313 313 310 309 309 312
241 228 227 223 240 218 186 139 118 109 143 197 228 238 247 259 273 284 290 294 304 309 311 309 310 307 307 307 308 308 308 307
239 230 217 218 218 144 116 120 147 173 198 211 229 243 270 286 287 291 296 302 304 303 306 308 307 307 307 307 306 305 304 303
199 163 162 149 121 125 144 171 183 194 214 237 252 269 279 281 287 297 301 302 301 305 306 306 306 306 306 305 304 302 301 301
119 116 126 136 146 155 172 181 201 217 262 274 270 274 281 294 297 293 294 297 301 304 306 305 306 307 306 304 302 302 302 301
144 149 158 161 165 166 189 208 216 247 258 263 267 265 280 285 286 291 295 302 306 306 305 306 306 305 305 305 304 303 302 301
168 179 178 190 193 200 203 223 240 252 255 247 265 275 283 284 291 297 302 305 305 306 306 306 305 305 306 305 304 303 302 301
191 200 201 203 208 202 213 237 246 237 245 261 271 279 286 293 299 302 304 305 306 306 307 306 305 306 305 304 302 301 300 299
194 206 209 216 216 222 232 237 219 241 260 272 279 292 297 299 302 303 305 307 306 307 307 305 305 304 303 301 300 299 299 299
202 217 225 218 220 229 221 233 250 263 276 286 295 298 300 304 305 307 308 306 306 307 307 306 304 303 302 302 303 302 302 302
226 228 228 240 230 233 237 245 268 283 291 297 302 304 304 304 305 306 305 305 307 308 309 307 305 305 307 306 306 305 304 304
257 260 253 224 235 251 255 266 284 294 298 303 306 304 304 306 307 306 305 305 308 308 309 310 310 310 309 308 308 307 306 304
249 244 236 231 241 269 276 284 289 299 303 306 305 304 307 308 306 305 305 299 298 310 319 314 310 307 307 309 306 304 304 304
236 234 236 243 261 280 287 293 300 302 302 306 305 307 306 305 305 304 307 306 305 308 311 312 310 310 310 307 307 306 304 304
234 242 256 271 279 288 297 300 300 296 306 305 306 304 304 303 307 313 314 312 307 307 307 309 310 309 309 309 307 306 306 305
215 251 271 284 291 291 295 297 299 303 306 305 303 304 303 311 311 317 308 308 303 303 307 309 310 310 309 308 308 307 306 305
Height
5797 5798 5797 5796 5795 5797 5796 5799 5803 5804 5804 5806 5809 5812 5819 5822 5824 5823 5822 5823 5822 5822 5822 5819 5818 5816 5813 5811 5810 5809 5809 5807
5795 5789 5787 5786 5792 5793 5793 5797 5798 5800 5802 5804 5806 5811 5817 5819 5821 5819 5819 5819 5818 5816 5816 5814 5812 5811 5809 5807 5806 5804 5803 5800
5793 5789 5790 5787 5786 5791 5792 5794 5795 5796 5798 5803 5808 5811 5815 5817 5818 5818 5817 5816 5813 5812 5811 5811 5809 5808 5805 5803 5801 5799 5797 5795
5785 5773 5780 5780 5785 5787 5787 5789 5791 5794 5798 5802 5806 5810 5814 5816 5816 5814 5813 5811 5809 5808 5806 5805 5804 5802 5800 5798 5796 5794 5793 5790
5780 5782 5781 5778 5780 5782 5785 5788 5790 5795 5798 5803 5805 5808 5811 5811 5812 5811 5808 5807 5807 5805 5802 5800 5798 5797 5795 5792 5791 5789 5786 5783
5773 5775 5778 5776 5779 5781 5785 5789 5792 5797 5799 5803 5805 5806 5808 5808 5807 5807 5805 5803 5801 5800 5798 5797 5794 5793 5791 5789 5785 5783 5780 5777
5772 5774 5774 5776 5780 5781 5784 5790 5796 5797 5799 5801 5804 5804 5803 5804 5803 5802 5801 5799 5797 5797 5794 5792 5790 5788 5786 5783 5779 5777 5775 5771
5770 5770 5771 5776 5779 5781 5786 5791 5793 5795 5798 5798 5799 5800 5800 5800 5798 5798 5797 5795 5794 5792 5789 5786 5784 5781 5779 5776 5772 5769 5765 5761
5772 5774 5778 5779 5783 5785 5788 5792 5793 5793 5793 5796 5797 5796 5796 5794 5795 5795 5793 5792 5789 5785 5782 5780 5776 5773 5770 5767 5763 5759 5755 5751
5775 5777 5781 5784 5785 5786 5788 5789 5791 5791 5792 5792 5793 5793 5792 5791 5793 5791 5788 5785 5781 5778 5776 5772 5768 5765 5760 5757 5753 5749 5744 5740
5778 5779 5779 5781 5783 5783 5784 5788 5787 5788 5788 5790 5790 5790 5788 5789 5787 5785 5783 5778 5775 5772 5768 5764 5759 5755 5751 5747 5742 5737 5733 5728
5777 5778 5778 5779 5780 5780 5782 5784 5784 5784 5786 5786 5788 5786 5785 5783 5781 5779 5775 5771 5767 5763 5758 5754 5750 5746 5741 5736 5731 5727 5722 5717
5775 5775 5775 5777 5778 5778 5779 5779 5781 5783 5783 5783 5782 5780 5780 5777 5774 5771 5767 5762 5758 5754 5750 5745 5740 5735 5730 5725 5721 5716 5710 5705
5774 5774 5775 5775 5775 5775 5776 5777 5778 5779 5780 5778 5776 5775 5773 5769 5767 5763 5759 5754 5749 5745 5741 5736 5730 5725 5719 5714 5709 5704 5698 5692
5769 5770 5773 5773 5771 5772 5774 5774 5776 5775 5774 5772 5770 5769 5766 5762 5759 5755 5750 5745 5741 5736 5731 5725 5719 5712 5706 5700 5695 5691 5685 5679
5767 5768 5769 5769 5768 5770 5770 5770 5770 5770 5768 5766 5764 5762 5758 5754 5749 5745 5740 5735 5731 5726 5720 5714 5706 5699 5693 5687 5681 5675 5669 5665
5765 5765 5766 5766 5766 5766 5766 5764 5764 5763 5762 5761 5758 5754 5748 5743 5740 5735 5730 5725 5721 5714 5706 5700 5694 5688 5682 5675 5669 5661 5654 5648
5763 5763 5763 5763 5762 5761 5760 5759 5758 5757 5756 5753 5749 5743 5738 5735 5730 5725 5719 5712 5706 5700 5694 5688 5682 5676 5669 5661 5653 5645 5638 5631
5759 5759 5759 5757 5757 5756 5754 5754 5753 5750 5748 5744 5739 5735 5730 5725 5719 5712 5706 5698 5693 5689 5682 5676 5669 5661 5653 5645 5637 5629 5620 5612
5753 5755 5754 5753 5751 5750 5750 5748 5745 5740 5738 5734 5730 5726 5721 5714 5707 5702 5694 5690 5683 5677 5670 5661 5653 5646 5638 5630 5622 5612 5603 5594